Location: Stara Lesna
(49.1528°N, 20.2911°E)
Time: 10:03:46
(UTC+02:00)

ATLAS 5 CENTAUR R/B - Pass Details

Date: 21 September 2019
Orbit: 558 x 1101 km, 63.4° (Epoch: 19 October)

Event Time Altitude Azimuth Distance (km) Brightness Sun altitude
Exits shadow 04:41:59 - 310° (NW) 2,467 4.4 -16.9°
Reaches altitude 10° 04:43:09 10° 320° (NW) 2,187 4.2 -16.7°
Maximum altitude 04:46:26 17° 1° (N) 1,851 4.2 -16.3°
Drops below altitude 10° 04:50:01 10° 42° (NE) 2,421 5.6 -15.7°
Sets 04:53:34 0° 61° (ENE) 3,479 7.2 -15.2°
